Wind_Speed
18 18 18 18 18 17 17 17 17 16 16 16 16 17 17 17 17 18 19 19 18 17 16 16 16 16 17 18 19 19 18 18 19 21 20 18 21 26 28 27 28 27 27 26 24 21 18 16 13 10 8 7 8 8 7 11 11 10 10 8 7 6 5 5 1 3 6 8 9 9 9 9 10 8 9 11 11 13 13 11 8 8 14 15 12 14 17 19
19 19 18 18 18 18 18 17 17 17 16 16 16 16 16 16 16 17 17 17 18 17 16 16 15 15 15 16 17 17 17 17 18 19 18 17 20 23 23 25 26 27 28 27 25 22 19 17 14 11 9 9 9 10 10 10 10 10 7 10 9 6 4 3 2 2 5 7 8 9 9 9 9 9 11 13 11 12 13 12 10 14 17 15 12 14 16 18
19 19 19 19 19 19 19 18 18 17 16 16 16 16 16 16 16 16 16 16 17 17 17 16 15 15 14 15 16 16 15 15 15 16 16 17 18 19 21 23 24 26 27 27 26 24 20 15 13 12 10 11 11 12 12 10 10 10 8 4 6 9 8 3 2 0 6 8 8 9 9 9 8 9 11 12 10 12 13 12 13 18 18 15 13 14 15 16
20 20 20 20 20 20 20 19 18 17 17 17 17 17 16 16 15 15 15 15 16 16 17 16 15 14 14 14 14 14 13 11 12 15 14 15 16 17 19 21 22 25 26 26 26 24 20 14 12 12 12 13 12 12 12 11 10 8 11 8 6 8 6 2 0 3 7 8 8 9 9 9 8 8 10 11 10 12 12 12 15 18 16 13 14 15 16 16
21 21 21 21 20 20 20 20 19 18 18 17 17 17 17 16 15 14 14 14 15 16 16 16 15 14 13 13 13 12 9 5 7 12 12 12 14 16 17 19 20 23 24 26 26 23 21 17 13 14 15 15 13 13 13 11 11 9 9 10 8 4 3 1 2 5 5 7 8 6 8 10 9 8 10 10 9 11 12 13 15 16 13 10 12 15 16 15
22 22 22 22 21 21 21 21 20 19 19 18 18 17 17 17 16 15 14 14 15 15 15 16 15 15 13 12 13 12 8 4 4 9 11 12 14 15 16 18 19 21 23 25 26 24 22 19 16 16 17 16 15 15 14 11 12 12 9 8 9 5 3 3 4 5 3 8 7 6 9 9 8 8 10 8 5 10 13 14 16 16 12 8 11 14 15 16
22 23 23 23 23 22 22 22 21 20 19 19 18 18 18 17 17 16 15 15 14 14 14 15 15 14 13 13 12 12 13 11 8 11 13 12 13 15 16 17 18 20 23 25 26 25 23 20 18 17 17 17 16 15 15 13 13 14 11 8 8 6 5 4 3 4 3 8 6 7 9 8 9 9 10 8 6 11 15 15 17 14 10 8 10 13 13 15
23 24 23 23 24 23 23 23 22 21 20 20 19 19 18 18 18 17 16 16 15 15 14 14 14 13 13 13 12 14 12 8 11 16 17 15 13 14 16 18 19 20 22 24 25 25 23 21 20 18 19 19 17 15 13 14 14 14 13 10 9 8 7 7 4 5 4 7 7 8 8 7 10 9 10 10 10 13 15 16 16 12 10 9 9 12 14 15
22 23 23 24 24 24 25 24 23 23 22 21 20 19 19 18 18 18 18 17 16 16 15 14 14 13 13 12 13 14 6 5 15 18 19 20 16 13 15 18 19 20 22 23 24 24 22 21 21 20 20 19 17 17 15 15 15 14 13 11 11 9 8 9 8 7 6 8 9 9 9 8 9 9 9 11 12 13 15 17 15 11 11 12 10 12 14 15
22 22 23 23 24 24 25 25 24 24 23 22 21 20 19 19 18 18 19 18 18 17 16 15 14 14 14 13 14 13 6 6 14 17 19 20 16 14 15 17 20 20 21 23 24 25 24 22 20 18 20 20 19 18 17 18 17 15 14 11 11 11 12 12 8 7 8 9 11 10 10 9 9 9 10 13 13 14 16 17 15 12 12 12 12 13 14 15
22 22 22 23 23 24 25 25 25 25 24 23 23 22 21 20 19 19 19 19 19 18 18 17 16 16 15 15 16 13 10 9 8 13 18 18 15 15 14 16 19 20 21 22 23 24 25 23 19 16 19 20 20 20 19 20 19 18 15 12 11 12 14 13 6 7 9 10 12 11 10 10 9 8 11 15 14 15 18 17 15 14 14 13 14 15 14 15
22 22 22 22 23 24 24 25 25 25 25 24 24 23 22 21 20 20 19 19 19 19 19 18 18 18 18 19 14 10 12 12 11 11 14 19 16 15 16 15 17 20 21 21 23 23 23 23 20 19 19 18 19 20 19 19 19 20 16 14 15 12 12 13 10 9 10 11 12 12 12 12 10 6 13 17 14 17 18 17 17 17 18 16 17 18 15 16
22 22 22 22 22 23 24 24 24 25 25 25 24 24 23 22 21 21 20 20 20 20 20 20 20 20 21 20 10 9 14 15 17 16 15 18 17 15 18 18 17 19 20 21 21 20 20 21 21 21 21 20 21 19 18 16 15 19 18 15 15 14 14 14 14 13 12 13 13 14 12 13 12 7 14 18 15 18 19 18 18 18 20 17 18 18 15 17
22 22 22 22 22 23 23 23 23 24 24 25 24 25 24 23 22 22 22 21 21 21 21 21 22 22 25 21 11 12 16 15 17 18 18 19 19 18 17 18 19 18 19 21 21 19 17 18 20 21 23 24 23 20 20 19 15 17 18 17 16 16 14 13 15 14 14 15 14 15 12 12 13 10 16 18 15 19 20 19 20 19 20 18 18 17 13 15
22 22 22 22 23 23 23 22 22 22 24 24 24 24 24 24 23 23 23 22 22 22 21 22 23 24 27 23 16 14 15 15 15 16 18 19 20 21 17 17 18 18 19 20 21 21 19 17 19 23 24 24 24 23 23 21 18 17 19 20 19 17 14 12 14 15 15 16 14 16 13 10 12 12 17 17 15 20 21 20 21 20 20 19 18 16 12 13
24 23 23 23 23 23 23 22 21 22 22 23 24 23 24 25 24 24 24 23 23 23 22 23 23 24 25 23 18 14 14 16 13 14 18 19 21 20 15 14 16 18 18 18 20 21 20 19 20 23 23 23 24 25 23 22 22 20 19 20 19 18 15 12 14 16 16 14 14 17 13 9 12 16 18 17 16 20 21 21 21 20 21 20 19 16 13 13
24 24 23 23 24 24 24 22 22 22 21 22 23 21 23 24 23 25 25 25 25 24 23 24 24 25 22 19 20 17 13 14 12 12 17 18 19 17 13 14 16 17 17 18 19 19 18 19 20 22 24 25 26 25 24 24 22 20 20 20 19 17 14 13 14 18 19 15 14 18 15 9 11 19 20 17 17 20 21 21 21 21 21 21 21 18 16 15
24 24 23 24 24 25 24 23 23 22 20 21 22 20 20 22 24 25 25 25 25 25 25 24 25 24 14 11 17 14 8 12 13 11 14 15 15 15 14 16 17 17 17 18 19 20 20 21 21 21 24 27 27 27 27 25 21 19 20 20 19 17 15 16 15 17 20 18 16 18 17 13 11 18 20 18 18 19 21 21 21 22 22 22 22 21 20 18
24 24 23 23 23 25 25 24 23 23 21 20 21 20 19 22 23 23 25 27 26 27 25 19 22 23 12 5 9 7 3 12 14 9 12 13 12 15 16 16 18 18 19 20 21 23 22 21 23 25 28 30 30 31 30 26 23 21 20 20 20 18 17 17 16 16 18 19 18 18 19 16 13 17 20 18 18 19 20 21 21 22 23 23 23 23 23 21
24 24 23 22 22 24 25 24 23 23 22 20 20 19 20 23 20 19 26 28 25 26 24 21 23 27 21 9 4 5 8 13 13 9 12 14 12 14 17 18 19 20 22 23 23 24 23 24 28 31 31 29 30 32 30 26 26 25 22 21 22 20 16 16 18 18 18 19 20 19 18 18 16 17 20 18 19 20 20 21 22 23 23 24 24 24 24 23
26 25 24 23 22 23 24 24 23 23 23 21 20 18 21 24 19 19 28 28 24 25 26 26 29 31 27 19 12 12 13 15 15 12 14 14 13 15 18 20 22 23 25 24 21 22 25 28 31 31 30 28 29 31 31 28 28 28 26 23 22 21 16 16 18 19 19 19 20 20 19 20 19 17 19 20 20 21 21 21 21 23 23 24 25 24 25 24
27 26 25 24 22 23 23 23 23 23 22 22 20 18 21 23 20 22 28 30 27 25 27 26 30 35 32 25 23 20 18 17 18 16 15 15 17 18 19 22 25 25 24 23 23 23 27 32 32 29 28 28 28 29 31 31 30 30 29 26 23 19 18 19 19 18 19 19 19 20 21 21 21 19 18 20 21 21 22 22 21 22 23 24 25 25 25 25
29 28 27 25 23 23 23 22 22 22 21 22 21 19 22 21 20 23 26 31 29 23 26 28 28 33 33 29 27 26 26 25 21 19 17 19 20 19 19 23 25 25 24 26 28 28 28 30 30 28 27 28 30 30 31 32 32 31 30 28 26 20 20 21 20 19 20 19 18 18 20 21 21 22 21 20 21 21 22 22 22 22 23 24 25 25 25 26
29 29 28 27 25 23 23 22 21 21 21 21 21 21 21 20 20 23 24 31 33 23 19 23 26 30 31 29 25 27 30 29 25 23 21 22 22 21 21 23 24 26 26 27 29 31 29 25 24 28 29 29 31 32 32 32 32 32 32 30 27 23 22 21 18 19 19 19 19 18 19 21 22 23 24 24 23 23 22 23 23 23 23 23 23 24 24 25
29 29 28 28 26 24 24 23 20 21 21 19 22 22 19 19 18 21 23 28 33 26 15 17 23 26 24 24 26 27 28 29 30 27 24 25 25 23 22 22 24 26 27 27 28 32 31 24 22 27 30 31 31 33 34 32 30 31 33 32 30 25 22 20 19 20 21 21 22 20 17 17 21 24 24 25 25 24 24 24 25 24 24 24 23 23 24 24
29 29 28 27 27 24 23 23 19 18 20 20 23 20 17 17 15 17 21 23 29 29 19 18 20 19 19 24 27 25 24 29 33 29 25 27 27 24 23 23 24 26 25 26 27 30 31 27 24 26 30 32 32 33 34 33 32 31 30 30 31 29 24 21 22 24 23 20 22 23 18 13 18 23 25 25 24 25 25 25 26 26 26 26 24 24 25 24
28 29 28 26 27 26 22 22 20 18 20 22 20 16 15 13 11 13 14 14 19 18 12 17 17 16 17 20 24 26 24 23 27 30 29 29 29 27 26 24 24 25 23 24 27 28 27 28 28 27 28 32 35 35 33 34 34 31 28 27 29 31 29 25 25 24 22 19 19 23 23 18 18 22 23 25 26 26 27 27 26 27 27 27 26 25 25 25
28 29 29 24 25 27 23 22 21 18 21 22 18 16 14 11 9 8 7 7 6 2 10 18 18 19 17 17 25 32 25 13 16 28 28 29 31 29 29 28 25 24 23 24 28 27 24 28 31 29 29 31 34 35 32 33 35 31 26 26 27 29 28 28 28 25 23 21 19 23 25 20 19 21 20 23 28 28 28 29 29 29 28 27 27 25 25 26
27 29 29 24 24 27 24 23 22 19 19 20 17 16 14 11 9 6 5 8 7 6 12 15 16 19 18 21 26 31 27 17 15 19 20 28 33 30 30 29 26 24 25 27 28 25 23 26 28 29 30 31 32 33 32 32 34 30 25 25 27 27 29 29 29 27 24 22 20 24 24 18 15 21 23 23 27 30 29 29 30 31 29 27 27 27 26 26
27 28 29 26 23 25 24 23 24 20 17 17 17 15 13 11 10 8 8 10 9 8 12 17 16 16 18 24 26 27 27 24 18 13 17 27 33 31 27 25 25 26 25 28 30 28 25 23 25 30 31 29 28 29 31 32 31 29 26 26 28 28 31 31 30 31 22 14 19 25 26 21 14 18 25 25 26 28 29 30 30 31 31 28 28 28 27 26
27 27 28 27 24 24 22 22 25 21 16 15 15 14 13 13 12 12 11 11 10 9 11 15 15 17 22 25 26 26 27 25 21 18 21 27 31 32 28 24 26 27 27 29 29 29 29 26 26 29 30 29 27 26 29 31 31 31 28 27 27 27 30 28 29 30 17 9 19 26 28 26 19 20 24 25 26 27 26 29 30 31 31 28 27 28 28 27
28 27 27 27 26 24 21 22 24 20 15 14 14 15 15 12 17 22 16 8 9 13 15 15 15 21 25 25 25 25 28 28 24 23 25 28 32 34 33 30 29 28 27 28 27 27 31 33 28 25 27 32 30 28 29 31 32 33 30 27 23 19 20 18 17 18 15 15 22 26 26 27 26 28 27 24 25 27 26 27 28 31 30 28 29 29 30 29
29 29 27 26 28 25 21 23 23 19 17 13 14 18 16 12 20 28 26 17 9 7 10 14 17 21 23 26 26 25 27 29 27 25 26 28 31 33 34 33 30 28 25 25 25 26 27 31 33 27 25 31 32 30 31 31 31 33 33 30 22 14 10 9 10 11 14 19 25 28 26 24 26 29 30 29 25 23 26 26 25 28 29 30 31 29 29 29
30 30 28 27 27 25 23 23 22 20 17 14 18 20 20 22 25 23 26 29 22 11 7 8 13 20 23 26 26 25 28 28 28 28 27 29 31 32 33 34 33 30 26 24 26 27 23 24 34 35 26 27 33 34 30 28 29 33 34 32 28 22 14 10 11 11 13 18 24 28 24 21 24 24 25 29 27 22 24 25 25 27 29 32 31 26 27 29
31 31 30 27 26 26 24 22 22 21 17 17 21 23 28 33 28 21 22 25 26 25 21 14 13 19 23 25 25 26 28 27 29 30 30 32 33 32 32 35 37 34 29 25 24 26 26 24 29 34 28 26 31 34 32 27 27 31 34 35 34 32 27 20 16 19 20 17 18 24 25 24 26 23 21 24 26 27 25 23 24 25 27 32 30 26 30 31
33 32 31 28 26 26 24 22 21 21 19 19 24 30 39 37 25 19 20 18 21 25 26 23 20 21 24 25 25 28 29 27 29 31 32 33 33 33 32 32 36 38 34 29 23 22 25 24 23 29 32 32 30 30 33 33 28 26 32 38 35 31 32 26 20 22 23 15 14 22 24 24 23 21 21 22 23 28 29 25 24 25 27 30 33 33 33 30
34 33 31 26 26 24 23 22 19 20 21 22 30 38 41 35 27 24 20 17 19 20 23 26 25 24 25 25 25 28 30 29 29 31 31 32 33 34 34 31 33 38 38 32 26 22 21 21 22 27 33 35 31 27 30 36 34 28 29 33 32 30 33 30 19 15 15 11 13 21 23 23 21 18 20 22 21 24 29 29 26 25 27 28 32 36 33 24
35 35 30 24 26 25 22 21 19 21 22 25 38 44 39 32 29 27 25 24 23 21 23 27 26 25 26 26 26 27 29 31 31 31 29 30 32 33 35 33 31 35 38 34 29 25 21 20 20 25 29 32 32 29 29 35 39 37 30 27 30 29 30 31 21 12 12 10 10 18 23 26 27 21 20 25 24 21 25 30 29 26 27 29 33 34 28 21
34 33 26 17 17 16 16 18 17 20 24 29 38 41 37 35 32 28 26 27 28 27 27 27 25 26 26 27 27 27 30 32 32 31 30 28 28 30 33 34 31 32 36 37 34 29 23 19 18 21 25 27 32 34 34 34 38 41 38 32 31 29 27 30 26 18 16 11 9 15 18 21 27 26 23 26 28 26 24 27 29 29 28 30 33 32 27 27
30 30 24 11 8 11 14 15 16 20 26 33 37 35 32 31 31 30 28 27 30 30 28 27 26 26 27 27 28 28 29 32 33 32 30 28 26 26 31 34 33 31 33 36 36 33 27 22 19 19 23 28 34 38 38 34 32 37 41 38 32 29 29 29 29 30 25 12 7 10 12 18 26 24 21 23 27 29 28 26 28 30 29 29 32 33 31 32
27 27 21 6 6 17 17 14 18 23 28 33 36 35 32 29 27 28 27 28 33 34 30 28 27 28 28 26 28 30 29 30 33 33 31 30 29 26 27 32 33 31 32 35 37 35 30 24 20 20 23 30 34 35 34 31 29 31 37 40 35 30 29 24 20 29 32 22 15 11 9 19 25 22 21 22 24 27 27 28 29 30 30 28 29 33 35 35
26 27 18 3 11 17 17 19 23 25 29 32 32 31 31 30 29 29 28 27 32 36 36 33 30 29 30 29 27 28 30 30 31 34 33 32 31 28 25 27 31 32 31 33 36 35 31 26 22 24 26 27 28 29 29 29 29 29 31 37 39 35 31 24 15 22 29 28 29 24 15 18 23 20 18 18 20 25 25 27 30 31 31 29 26 29 34 33
26 29 24 14 21 21 18 24 28 26 30 31 30 30 29 29 30 30 29 29 30 32 35 37 35 30 29 30 28 26 28 30 32 34 34 33 33 31 27 26 29 32 32 31 32 33 33 29 25 23 25 26 24 27 29 28 29 31 31 34 39 41 39 31 22 24 28 29 31 23 14 20 23 19 18 16 17 22 23 23 27 29 32 33 30 27 30 30
27 30 28 17 24 29 25 26 28 28 30 29 29 31 31 31 33 31 30 31 31 31 31 34 36 34 31 29 28 28 26 26 29 31 32 33 33 32 30 27 27 30 32 30 29 31 33 32 28 20 17 19 20 23 28 31 32 32 32 33 36 41 43 39 31 27 26 29 30 19 13 23 26 19 17 16 15 20 22 21 25 27 28 30 33 31 27 23
25 27 25 16 18 28 31 30 29 28 28 28 30 31 30 32 33 33 34 33 32 32 33 32 30 31 34 33 32 32 29 26 25 26 29 32 32 32 32 31 29 29 30 28 27 29 31 32 31 24 14 12 15 17 23 30 32 30 31 32 33 36 40 41 39 31 22 22 29 26 21 25 29 26 22 18 15 18 19 20 24 27 25 23 26 28 26 21
22 23 22 15 11 20 29 30 30 31 29 28 29 29 30 31 30 30 32 36 36 34 34 34 30 28 30 34 36 35 33 30 27 25 27 27 28 32 33 33 31 28 30 31 28 28 29 30 33 34 27 20 19 20 22 26 29 30 30 32 33 34 36 38 39 37 29 22 24 29 29 26 26 29 30 28 24 20 18 19 21 22 24 24 21 18 20 20
19 20 17 14 12 14 21 23 25 28 29 29 29 27 25 27 29 28 28 30 35 37 35 35 34 31 27 28 33 36 35 33 32 30 29 26 26 30 31 32 30 30 32 29 24 27 31 30 32 36 36 30 24 23 22 23 27 29 30 31 32 32 35 37 38 39 36 27 22 26 29 28 28 28 26 29 31 27 23 23 23 21 22 26 25 20 22 24
18 20 15 13 15 16 19 20 20 22 24 25 28 27 25 25 25 26 25 23 24 31 33 33 36 37 32 27 27 30 31 32 34 34 31 28 28 30 33 32 30 34 37 29 20 24 29 30 30 32 35 35 32 28 24 23 25 26 26 28 30 31 33 35 37 38 37 33 29 27 26 26 34 37 29 23 24 24 22 23 27 28 25 25 22 21 28 35
18 20 18 16 19 21 23 23 23 23 23 22 24 25 26 27 25 24 25 23 21 20 17 18 24 29 31 31 29 29 29 29 32 35 33 31 27 27 34 36 31 33 36 32 25 23 26 28 27 28 30 33 35 34 30 27 26 26 27 27 28 30 32 33 34 36 38 39 36 32 28 27 31 36 35 29 24 21 21 21 23 27 29 29 24 21 27 33
19 20 21 21 21 21 22 23 23 24 23 21 22 23 24 27 29 28 24 21 23 23 15 15 17 16 19 24 26 28 29 26 28 32 32 32 31 27 29 33 34 32 31 32 29 25 25 25 23 24 26 28 32 36 34 31 29 28 28 29 31 31 32 33 34 34 36 37 35 33 35 35 31 31 34 36 34 31 29 27 25 26 28 29 29 27 27 29
21 21 22 25 25 22 21 20 21 23 23 21 21 21 22 24 27 29 25 21 22 23 19 22 23 19 17 15 11 18 20 16 21 27 28 28 31 32 30 29 32 33 33 34 33 28 27 25 22 23 23 23 27 31 32 32 31 30 29 31 34 33 29 29 31 33 33 33 31 33 36 37 34 31 30 31 33 36 37 34 30 30 29 28 29 29 29 29
21 22 21 24 26 23 21 21 21 22 23 22 21 21 21 22 22 24 28 29 28 23 20 25 26 23 22 17 13 16 15 14 20 30 32 27 25 28 33 31 29 30 31 33 34 32 29 26 24 24 23 23 23 24 27 28 26 29 35 35 32 31 28 27 29 32 33 31 30 31 32 32 32 31 31 29 29 32 35 37 36 34 31 30 29 29 33 33
Wind_Direction
278 279 279 280 280 280 281 282 283 285 287 291 294 294 293 290 285 280 276 273 271 270 273 278 280 280 279 279 278 279 284 283 273 259 246 231 232 240 240 240 243 245 245 246 247 251 254 258 263 267 272 278 278 279 264 248 247 249 270 287 277 294 272 246 52 153 137 123 141 138 142 136 129 132 126 128 129 133 135 140 140 122 144 168 171 162 165 163
277 278 278 279 279 279 280 280 281 282 284 287 290 293 294 294 291 286 281 276 274 272 272 275 279 280 279 279 278 279 285 284 273 261 250 234 230 239 242 239 240 242 242 242 245 247 251 256 259 263 263 262 262 259 261 252 240 234 262 299 283 286 286 243 65 144 158 138 144 143 148 143 137 135 131 135 134 139 142 142 137 129 154 183 171 162 170 165
278 278 278 278 278 278 278 279 280 281 283 284 286 289 292 294 293 291 287 281 277 275 273 274 277 279 281 279 277 280 284 286 279 266 252 239 230 231 235 236 237 239 240 239 241 243 246 251 254 256 252 252 252 248 256 245 230 224 216 283 307 299 295 256 308 6 151 151 143 145 151 142 144 141 137 143 139 147 150 148 148 144 164 184 164 165 173 168
276 277 277 277 277 277 278 278 279 280 281 282 284 285 288 291 293 293 290 287 282 278 277 276 276 278 281 279 278 278 286 296 283 267 252 241 234 228 228 231 233 235 237 238 238 239 241 237 237 245 243 247 251 247 249 238 232 232 217 235 311 302 269 190 195 113 134 153 139 140 153 145 149 145 145 148 144 155 158 158 161 162 177 179 162 167 170 172
274 274 274 275 275 276 276 276 276 278 279 280 282 283 285 287 289 291 291 291 287 284 282 280 279 278 278 279 278 275 285 313 282 266 257 244 238 230 225 224 228 232 232 234 233 234 235 229 222 233 240 242 246 246 242 238 243 260 248 254 302 301 229 25 142 143 135 155 138 138 158 151 149 146 151 153 155 165 161 165 168 173 188 177 167 169 168 175
275 273 272 273 273 273 274 274 275 275 276 277 279 281 283 284 286 288 290 291 289 289 287 284 283 279 278 276 274 271 258 221 234 266 259 246 241 231 224 220 221 226 228 230 229 228 228 226 222 226 238 241 244 245 240 237 240 256 266 266 290 283 268 341 147 162 160 162 148 142 153 151 153 147 152 151 149 166 160 163 168 177 194 179 166 170 169 176
277 275 274 274 273 273 273 274 274 274 274 274 276 278 280 282 283 285 286 288 289 290 290 289 287 282 279 274 270 266 252 231 236 263 261 252 246 237 228 221 218 220 225 227 226 225 223 223 223 224 234 239 242 248 247 247 244 249 258 256 268 259 252 286 181 184 183 170 162 151 154 159 162 152 155 145 119 151 155 159 169 179 195 180 164 168 172 176
279 277 276 275 274 274 273 273 273 273 273 272 273 274 276 279 281 283 283 283 286 288 290 290 289 287 280 275 272 263 257 262 264 262 262 255 244 240 232 222 218 218 221 225 224 223 221 222 222 222 233 238 240 244 247 252 250 248 254 254 251 240 240 262 228 189 182 180 173 162 162 163 165 160 160 149 127 143 152 159 172 183 189 181 170 171 175 176
282 280 278 276 274 274 273 273 273 273 272 272 271 271 272 274 277 280 281 281 283 284 287 288 289 289 282 277 273 263 253 286 276 267 264 258 245 237 233 225 221 218 218 220 220 218 214 220 223 222 231 239 243 245 246 249 250 245 248 250 244 241 239 251 241 200 183 185 178 169 167 161 166 167 160 153 142 148 156 161 169 179 182 179 177 178 179 179
286 284 281 278 276 274 273 272 272 271 271 271 270 270 269 270 272 275 277 279 281 281 283 285 286 286 284 277 269 261 231 241 274 276 270 263 246 232 230 227 223 218 217 216 217 215 211 215 221 226 235 242 245 248 249 248 250 250 252 249 235 243 242 238 236 199 183 183 183 179 173 163 170 177 165 159 155 154 157 163 170 174 177 181 181 184 183 179
288 286 284 282 279 276 274 273 272 271 270 270 269 269 268 268 268 269 272 275 278 280 280 281 282 281 281 275 267 262 241 222 258 279 276 272 248 226 228 230 225 219 217 216 215 215 213 212 213 224 237 242 245 249 252 250 256 263 264 260 244 247 241 225 212 201 192 189 189 185 178 167 172 187 174 165 159 160 161 165 173 171 175 186 184 186 188 181
290 288 287 285 283 280 278 275 274 272 270 269 268 268 267 267 266 266 268 270 273 276 277 279 278 278 277 272 271 271 251 225 224 243 262 273 258 225 223 226 225 221 217 217 216 215 215 212 212 224 231 237 242 246 252 251 256 262 259 257 250 249 242 227 226 224 199 191 190 182 181 177 181 192 179 173 163 164 167 170 173 170 175 184 182 190 195 185
295 292 289 287 285 283 282 280 278 275 273 271 269 268 267 265 265 265 265 266 269 271 274 277 275 277 274 271 275 273 259 242 237 233 233 257 262 237 223 223 224 223 218 218 216 216 219 216 215 224 229 235 240 241 249 252 254 254 250 252 249 242 235 227 228 224 202 195 189 183 190 190 190 191 178 176 168 171 172 171 174 171 176 182 182 193 200 191
297 296 292 289 287 284 283 282 281 279 276 274 272 269 267 265 264 263 264 264 265 266 269 273 275 276 273 272 277 271 268 261 252 247 235 240 255 247 229 225 226 222 220 219 216 212 219 225 224 227 230 234 239 244 251 253 255 250 242 238 241 244 238 225 224 217 200 196 191 191 201 200 195 187 179 179 175 178 176 174 176 175 180 184 184 194 199 194
297 296 294 292 289 286 284 282 282 281 279 278 275 272 270 268 265 264 263 262 262 263 265 268 271 274 276 277 274 261 261 265 259 256 243 231 241 245 232 229 231 224 221 221 220 213 210 220 228 231 231 232 236 245 250 249 248 246 239 230 226 237 239 224 218 211 198 192 193 200 203 203 205 193 182 183 181 181 181 177 178 179 183 187 188 196 196 191
297 296 296 294 291 289 286 284 282 280 280 279 276 275 273 270 268 266 263 261 261 261 261 265 266 269 277 281 279 267 260 267 265 254 245 229 232 239 229 232 236 230 224 221 223 218 211 217 225 230 230 229 231 238 246 247 240 233 235 234 225 224 226 219 211 202 197 191 195 206 205 206 208 196 185 184 185 183 184 183 181 183 185 189 194 198 200 194
295 295 296 295 294 291 289 287 284 281 280 279 278 276 275 273 271 267 264 261 259 259 260 263 264 266 271 275 277 279 277 277 271 250 246 237 228 225 222 229 231 230 225 221 223 217 214 220 224 227 226 225 226 228 235 239 236 226 223 231 233 227 221 221 213 198 197 199 202 207 211 219 196 185 186 186 185 184 187 188 186 187 187 192 196 198 208 209
292 293 294 294 295 293 291 291 288 285 282 280 280 277 275 274 271 268 266 263 259 257 256 258 262 265 275 283 273 278 284 266 261 247 242 243 228 210 211 224 223 220 219 219 220 213 213 217 218 221 222 222 221 220 223 227 230 228 219 223 234 232 220 220 215 197 198 205 206 205 208 220 201 182 185 187 186 188 190 192 191 190 190 194 196 196 207 218
291 290 290 291 292 292 292 292 291 289 286 284 283 283 279 271 269 273 270 263 259 255 254 258 259 252 247 307 300 291 227 226 238 235 224 229 223 206 202 215 218 211 212 214 216 212 209 212 214 217 219 218 216 216 220 224 227 231 225 221 229 231 219 218 219 204 203 210 211 209 206 215 214 189 186 188 189 191 191 193 195 195 195 197 199 197 202 219
290 289 289 289 289 290 290 291 292 291 290 288 284 286 283 274 275 276 267 262 260 256 250 246 252 247 228 222 289 266 227 229 237 226 216 219 216 207 201 208 213 210 211 210 212 213 208 211 215 217 218 217 218 219 222 228 230 235 235 226 227 231 221 217 222 213 208 215 215 211 210 215 215 195 189 191 192 193 195 195 197 198 198 199 202 200 201 214
288 288 289 288 288 288 286 289 291 290 291 289 285 285 280 279 282 274 269 270 265 260 253 239 243 248 233 215 221 235 248 262 262 239 222 220 212 210 208 205 207 212 213 209 212 213 210 217 220 219 221 220 221 222 224 229 230 236 242 238 233 232 230 229 229 216 207 217 218 210 213 217 214 203 195 195 195 197 198 198 199 200 201 202 205 205 204 209
288 287 287 287 289 287 285 286 287 288 289 287 287 283 277 280 283 277 278 277 266 258 260 246 237 244 242 224 212 215 231 247 253 244 221 209 211 213 210 207 208 212 214 210 212 212 212 221 223 219 221 221 222 223 223 227 230 236 241 244 243 233 227 231 231 218 205 212 218 211 214 218 217 214 203 198 202 204 203 202 202 201 202 205 208 207 206 209
290 288 286 285 286 287 286 283 284 286 286 285 284 279 277 281 282 282 284 282 274 259 257 254 243 243 246 237 219 214 226 228 231 236 221 207 212 215 209 208 212 214 214 211 212 214 216 222 223 219 219 219 222 223 222 226 229 234 236 240 246 238 225 226 223 214 206 211 221 215 217 221 220 218 212 208 209 210 209 207 205 204 205 208 210 210 208 210
290 287 285 284 283 285 285 282 283 283 281 283 280 276 278 280 282 285 286 285 281 268 258 260 253 247 244 240 230 223 229 229 225 227 221 211 210 214 213 211 215 217 217 216 216 221 224 224 221 219 219 218 220 222 223 225 226 231 234 235 240 239 234 233 224 211 203 210 220 218 220 225 221 219 216 214 213 213 211 209 207 207 208 208 208 212 213 212
287 286 284 282 280 281 283 282 281 280 278 276 273 273 276 279 284 286 289 293 285 276 273 263 252 251 244 233 228 227 230 232 228 223 218 217 211 210 214 213 216 220 220 219 221 227 231 228 221 217 218 218 219 221 221 223 226 228 232 234 236 239 237 232 224 213 205 209 215 215 222 225 221 223 220 214 212 213 212 209 209 208 209 211 208 210 217 216
284 284 282 281 279 276 280 283 278 275 273 267 267 274 276 279 284 287 295 298 289 286 279 258 250 250 238 223 219 218 225 235 234 224 216 219 215 208 212 215 217 222 222 222 226 230 231 228 222 218 217 217 219 221 220 221 227 230 229 231 235 241 242 234 227 218 211 212 209 210 222 231 224 225 223 217 215 216 213 210 210 210 210 212 212 209 213 215
283 283 280 280 279 273 273 279 276 268 267 266 270 276 275 278 281 291 306 296 288 295 258 230 236 237 228 220 210 202 212 233 235 225 215 214 214 209 213 216 217 222 220 221 228 229 227 225 223 220 217 217 218 220 219 218 225 231 229 228 230 236 242 241 233 224 218 221 215 212 223 233 231 227 223 218 219 218 214 212 213 214 213 212 212 210 211 215
283 283 280 279 278 274 269 271 273 267 264 266 270 271 267 269 268 281 311 283 276 287 206 212 222 225 212 200 203 203 208 219 224 227 219 210 211 210 214 217 216 222 219 219 228 227 223 224 223 221 218 218 218 219 218 217 223 229 229 229 228 230 238 242 240 230 213 213 224 225 227 232 232 228 226 221 219 218 215 216 217 215 214 212 212 213 214 217
284 282 282 278 275 275 270 267 271 268 263 263 261 261 259 256 252 252 272 257 243 235 227 220 218 220 201 187 202 212 214 216 223 235 222 208 210 209 214 218 216 223 223 223 232 231 225 225 224 224 221 220 221 221 219 219 223 226 228 234 233 230 231 234 241 239 217 203 214 225 227 233 236 227 226 223 220 219 217 218 218 214 213 213 214 217 217 220
284 282 283 279 272 272 270 268 270 267 263 258 251 251 247 236 229 229 239 237 246 262 232 215 215 216 195 188 204 214 213 216 222 225 206 203 209 210 215 221 220 226 230 227 232 233 232 229 223 225 225 222 224 223 221 221 222 223 226 233 237 238 233 228 233 238 234 216 216 225 228 232 243 233 227 224 222 223 220 218 217 213 213 217 218 216 216 220
285 283 282 282 275 268 268 269 267 266 264 253 241 236 232 224 217 220 232 233 248 255 211 204 214 208 195 193 204 211 207 209 214 207 196 197 203 206 211 216 216 224 231 230 230 231 233 232 224 223 225 225 226 226 222 221 220 221 224 227 233 240 238 231 228 229 234 235 227 230 230 229 238 239 231 227 226 225 221 218 216 213 215 219 217 215 215 215
286 284 282 283 278 269 266 266 264 264 261 246 228 221 216 218 224 222 224 235 252 241 216 209 211 203 201 202 206 207 203 205 209 204 198 197 198 202 206 208 206 212 222 226 225 225 227 231 228 223 222 223 224 223 220 219 218 218 220 222 226 234 234 230 231 229 229 231 231 232 230 228 236 238 236 233 228 224 220 219 215 212 215 214 210 211 215 215
287 285 282 282 280 274 264 262 264 260 255 240 219 212 206 219 232 223 219 223 232 236 219 217 217 207 204 208 209 206 203 205 207 204 202 200 201 205 208 208 206 208 215 218 220 221 222 226 228 225 219 220 220 217 214 213 212 212 214 216 218 225 229 223 232 241 233 229 232 236 234 231 234 236 235 235 232 223 218 219 216 213 212 211 215 219 221 222
289 286 284 281 281 279 266 259 261 257 251 234 213 206 208 227 234 223 220 225 224 234 246 234 226 216 208 210 213 207 203 205 205 204 204 203 206 210 210 211 210 211 216 219 218 219 220 219 220 221 218 214 215 215 212 210 210 212 213 216 219 221 224 225 225 231 238 238 235 233 232 231 232 232 231 231 229 222 218 220 218 217 214 214 224 230 220 219
290 287 285 283 281 281 272 260 257 256 250 226 210 208 218 229 231 226 228 228 227 238 252 254 239 227 218 215 216 212 207 207 205 205 207 208 210 212 210 210 211 210 214 220 220 219 224 226 219 218 218 214 213 214 212 213 218 215 213 218 222 219 222 235 240 231 234 242 236 230 229 230 230 229 227 226 224 220 219 220 219 215 214 215 219 219 212 216
290 287 286 286 283 282 276 264 254 253 248 223 212 220 226 228 228 228 232 232 233 240 250 253 242 234 229 220 217 217 214 212 206 206 211 214 215 216 214 212 211 210 210 215 218 217 224 231 221 215 218 216 214 213 209 214 221 216 212 218 222 219 222 234 246 240 239 245 237 233 234 231 226 219 217 223 225 223 219 217 217 214 214 215 212 211 215 221
292 287 287 288 283 279 275 268 254 249 245 224 220 228 232 233 234 235 235 237 240 242 248 249 240 233 233 227 220 216 215 215 209 209 213 215 217 218 216 216 213 211 211 213 220 223 227 235 222 213 218 215 211 214 212 214 223 223 216 216 219 220 223 230 237 237 239 246 236 235 238 237 232 215 208 217 223 223 217 212 212 213 215 215 210 212 219 219
295 292 292 292 285 276 270 266 254 246 242 227 229 235 236 237 238 237 239 241 248 252 250 248 242 235 232 230 227 217 211 214 213 214 217 215 218 218 215 217 216 212 212 213 221 227 230 241 229 213 217 213 205 211 217 215 221 227 226 217 214 216 219 223 227 226 231 236 232 236 238 237 237 227 208 211 215 212 208 208 211 215 216 216 211 211 213 215
298 297 297 298 298 285 261 253 246 240 236 230 234 240 241 242 238 232 231 239 251 259 258 255 248 241 235 230 231 223 214 216 216 216 219 218 220 218 213 216 217 213 211 212 219 225 225 236 237 217 211 206 199 206 215 214 213 222 231 229 220 218 218 221 223 223 230 239 231 235 238 234 237 234 215 209 211 209 204 206 212 218 220 217 209 204 206 221
299 297 295 294 291 269 245 238 235 234 234 233 238 244 247 249 248 237 226 230 243 251 255 256 250 246 243 234 232 230 221 220 218 216 219 221 222 220 214 213 215 213 210 209 215 223 225 229 238 223 204 199 201 205 210 212 208 212 224 230 224 215 216 224 225 220 224 240 236 231 238 235 238 238 229 221 213 207 207 208 212 218 222 219 212 208 212 224
298 294 297 316 246 253 252 247 240 236 237 240 244 247 249 251 255 251 239 234 240 242 246 254 253 249 249 242 235 234 230 226 220 216 220 223 222 222 216 212 212 211 208 207 210 217 222 224 230 228 211 205 209 210 208 211 213 212 217 224 224 215 210 217 224 218 220 229 235 238 247 237 236 238 237 232 214 203 208 214 216 218 219 221 222 219 216 219
293 285 284 201 196 238 255 255 250 244 243 245 247 250 253 253 253 253 248 243 244 245 247 253 254 250 249 247 241 237 235 234 227 218 218 223 224 222 217 211 211 210 207 208 209 211 218 222 223 227 227 221 215 212 210 209 214 220 219 218 222 224 219 217 218 217 220 226 229 235 248 240 234 236 238 234 214 207 213 218 217 218 217 217 222 223 218 220
288 281 277 238 209 219 239 250 251 247 246 249 252 252 254 254 254 253 248 245 245 245 246 247 247 248 247 247 248 245 241 240 238 230 222 221 223 223 221 215 210 209 209 211 209 207 213 222 222 220 231 237 223 208 211 212 212 220 223 217 218 223 225 225 222 218 223 228 225 225 237 236 233 236 237 238 225 210 210 217 216 217 217 215 219 228 226 223
289 284 285 262 219 217 231 245 249 250 250 253 256 255 253 252 252 251 247 245 243 242 244 244 243 243 244 247 250 250 249 246 244 240 232 227 223 221 222 218 208 207 210 211 208 203 206 217 221 216 221 235 227 206 206 211 211 215 221 219 218 220 224 228 230 226 226 228 225 222 228 227 229 235 229 225 223 210 210 220 220 220 223 218 218 227 225 213
298 292 291 276 225 225 237 243 247 254 256 256 257 257 256 253 251 249 247 245 242 240 242 243 242 241 241 244 248 248 249 251 248 244 241 238 229 221 220 215 206 206 212 213 208 203 206 211 216 219 215 215 219 210 202 206 209 213 219 223 223 221 221 225 230 234 233 227 225 229 235 226 222 225 221 212 211 208 215 229 222 218 223 214 208 217 219 215
300 297 294 290 255 240 245 246 247 252 255 257 259 260 257 256 255 251 248 246 242 240 242 242 241 243 240 238 241 244 244 246 250 249 247 244 231 222 220 214 206 205 212 215 209 204 210 213 213 220 226 221 220 221 210 204 208 213 215 221 225 224 222 222 226 232 235 234 230 233 242 241 225 217 214 213 217 215 217 227 221 212 211 206 205 216 217 215
288 288 291 297 288 257 250 250 249 250 252 255 260 263 263 263 263 256 247 245 242 238 241 242 236 239 242 235 235 241 241 242 246 248 250 249 237 226 222 218 211 208 214 220 211 204 213 220 215 218 226 229 227 226 218 208 213 218 215 216 222 226 225 222 224 229 232 236 236 232 237 244 242 237 225 216 221 225 220 217 218 220 214 207 213 229 231 231
276 278 280 282 280 268 260 262 263 262 263 265 267 269 268 266 270 266 252 247 244 233 237 243 235 233 241 240 235 238 239 240 243 243 245 249 246 233 222 219 214 210 218 228 222 210 217 224 220 218 223 227 230 234 231 220 216 220 219 217 218 224 229 228 225 227 231 235 237 233 230 234 242 247 243 225 221 226 221 212 214 223 224 212 216 240 247 244
273 275 273 267 266 267 267 269 274 274 274 276 276 277 271 259 262 271 262 259 256 236 236 255 243 235 241 245 245 243 239 238 240 240 240 243 248 239 224 219 213 203 212 226 225 217 223 227 225 223 223 223 226 233 238 234 225 222 222 223 220 219 225 232 232 228 230 235 237 237 236 235 236 240 242 241 237 231 225 218 213 219 223 221 230 247 244 237
274 273 273 272 266 264 268 271 276 276 274 274 273 277 279 263 252 256 266 276 266 248 259 281 262 242 232 234 247 247 238 240 244 241 241 241 244 243 230 223 217 205 207 222 225 221 224 226 225 228 231 228 223 225 231 237 239 235 230 231 235 227 217 222 232 234 234 235 235 235 238 240 237 235 238 244 245 240 236 232 227 225 226 229 237 241 234 230
275 272 275 278 273 268 271 274 275 274 270 270 267 268 278 273 254 248 259 273 262 252 270 279 267 256 225 212 260 262 244 261 261 238 232 234 234 237 236 230 223 212 209 217 222 220 220 223 222 225 234 238 227 220 222 228 237 243 237 233 239 237 223 217 224 231 236 240 237 233 235 237 236 235 235 239 242 241 242 242 239 233 232 235 238 235 230 231
276 271 271 276 275 273 276 275 272 271 268 269 268 265 270 273 266 260 265 267 257 252 266 267 263 264 245 238 305 303 263 260 246 223 219 222 221 228 233 230 224 217 211 212 216 216 217 219 220 220 229 236 230 222 222 223 227 234 234 231 233 235 230 227 226 223 225 234 241 240 238 237 237 236 234 234 235 237 241 244 243 238 235 238 237 230 227 229
Height
3161 3160 3160 3159 3158 3157 3157 3156 3155 3155 3154 3153 3152 3151 3151 3150 3149 3149 3149 3149 3149 3149 3148 3148 3147 3147 3145 3144 3144 3143 3143 3142 3141 3141 3142 3145 3146 3145 3149 3153 3154 3156 3157 3159 3160 3162 3163 3164 3165 3166 3166 3166 3167 3167 3168 3169 3171 3171 3170 3168 3168 3168 3165 3164 3164 3163 3163 3163 3164 3164 3165 3165 3165 3166 3166 3167 3168 3168 3169 3170 3171 3171 3172 3171 3171 3172 3173 3175
3159 3159 3158 3157 3157 3156 3155 3155 3154 3154 3153 3152 3151 3150 3150 3149 3148 3148 3147 3147 3147 3147 3147 3146 3146 3145 3144 3143 3142 3141 3141 3140 3139 3138 3140 3143 3144 3144 3148 3150 3152 3154 3155 3157 3159 3160 3162 3163 3164 3165 3165 3166 3167 3168 3168 3168 3170 3170 3170 3168 3167 3167 3164 3164 3164 3163 3163 3164 3164 3164 3165 3165 3165 3165 3166 3167 3168 3169 3170 3170 3171 3171 3171 3170 3172 3173 3174 3176
3158 3157 3156 3156 3155 3154 3154 3153 3153 3152 3152 3151 3150 3149 3149 3148 3147 3147 3146 3146 3145 3145 3145 3145 3144 3144 3143 3142 3141 3140 3139 3138 3137 3136 3137 3140 3142 3143 3145 3147 3150 3152 3153 3156 3157 3159 3161 3162 3163 3164 3165 3166 3167 3168 3168 3168 3168 3168 3168 3167 3166 3165 3164 3164 3164 3164 3164 3164 3164 3164 3165 3165 3165 3165 3166 3168 3168 3169 3170 3170 3171 3170 3169 3169 3172 3173 3174 3176
3156 3155 3155 3154 3153 3153 3152 3151 3151 3151 3150 3150 3149 3148 3148 3147 3146 3146 3145 3145 3144 3144 3143 3143 3143 3142 3142 3141 3140 3139 3137 3137 3135 3134 3136 3138 3140 3142 3143 3145 3147 3150 3152 3154 3155 3157 3159 3161 3163 3164 3165 3166 3167 3168 3168 3167 3167 3167 3166 3165 3166 3164 3163 3164 3163 3164 3164 3164 3164 3164 3165 3165 3166 3166 3166 3168 3169 3169 3170 3170 3170 3169 3169 3169 3171 3173 3174 3176
3154 3154 3153 3152 3151 3151 3150 3149 3149 3149 3149 3148 3148 3147 3146 3146 3145 3145 3144 3144 3143 3142 3142 3142 3141 3141 3141 3140 3139 3138 3137 3137 3133 3133 3136 3137 3138 3140 3142 3144 3145 3147 3150 3151 3153 3156 3158 3159 3162 3163 3164 3165 3166 3167 3167 3167 3166 3166 3164 3163 3165 3163 3162 3164 3163 3164 3164 3164 3164 3164 3165 3165 3166 3166 3167 3168 3168 3169 3170 3170 3170 3169 3169 3170 3171 3173 3174 3176
3152 3151 3150 3150 3149 3149 3148 3148 3147 3147 3147 3147 3146 3145 3145 3144 3144 3143 3143 3142 3142 3141 3140 3140 3140 3139 3139 3139 3138 3137 3137 3135 3133 3133 3135 3136 3137 3138 3140 3142 3144 3146 3147 3149 3151 3154 3156 3158 3160 3162 3163 3164 3165 3165 3165 3166 3165 3164 3163 3163 3163 3163 3162 3163 3163 3163 3164 3164 3164 3164 3164 3165 3166 3166 3167 3168 3168 3168 3169 3170 3169 3169 3169 3170 3171 3172 3174 3176
3149 3148 3148 3148 3147 3147 3146 3146 3146 3145 3145 3145 3145 3144 3143 3143 3142 3142 3142 3141 3141 3140 3139 3139 3138 3138 3138 3137 3137 3136 3135 3134 3133 3133 3133 3135 3136 3137 3139 3140 3142 3144 3145 3147 3150 3152 3154 3156 3158 3160 3162 3163 3164 3164 3163 3164 3163 3162 3162 3163 3163 3163 3163 3162 3162 3162 3163 3164 3164 3164 3164 3165 3166 3167 3167 3168 3168 3168 3169 3169 3169 3169 3169 3170 3171 3172 3174 3176
3147 3146 3146 3146 3145 3145 3144 3144 3144 3143 3143 3143 3143 3142 3142 3141 3141 3140 3140 3140 3139 3139 3138 3137 3137 3137 3136 3136 3135 3134 3134 3133 3132 3132 3132 3133 3135 3136 3137 3139 3140 3142 3143 3145 3148 3150 3153 3155 3157 3159 3161 3162 3163 3163 3163 3163 3162 3161 3160 3161 3162 3162 3163 3162 3161 3161 3163 3163 3164 3164 3165 3165 3166 3166 3167 3168 3169 3169 3168 3169 3168 3169 3170 3170 3171 3173 3174 3176
3144 3144 3144 3143 3143 3142 3142 3141 3141 3141 3141 3141 3141 3140 3140 3140 3139 3139 3138 3138 3138 3137 3137 3136 3136 3135 3135 3135 3134 3133 3133 3132 3130 3131 3131 3131 3133 3135 3136 3137 3139 3140 3142 3144 3146 3149 3151 3153 3155 3158 3160 3161 3162 3162 3162 3162 3160 3159 3158 3159 3160 3161 3162 3161 3160 3160 3161 3163 3163 3164 3164 3165 3165 3166 3167 3167 3169 3169 3168 3168 3168 3169 3170 3171 3172 3173 3174 3175
3142 3141 3141 3141 3140 3140 3139 3139 3139 3139 3139 3138 3138 3138 3138 3138 3138 3137 3136 3136 3136 3136 3135 3135 3134 3134 3133 3133 3132 3131 3132 3132 3131 3130 3129 3129 3131 3133 3134 3135 3137 3139 3141 3142 3144 3146 3149 3152 3155 3158 3159 3159 3160 3160 3160 3160 3158 3158 3157 3157 3159 3160 3160 3159 3159 3159 3160 3162 3162 3164 3164 3165 3165 3165 3167 3167 3168 3169 3168 3168 3168 3169 3170 3171 3172 3173 3174 3175
3140 3139 3139 3138 3138 3137 3137 3136 3136 3136 3136 3136 3136 3136 3136 3136 3136 3135 3135 3134 3134 3134 3133 3133 3133 3132 3132 3131 3130 3130 3130 3132 3133 3131 3128 3128 3129 3131 3133 3134 3135 3137 3139 3141 3143 3145 3147 3150 3154 3157 3158 3158 3158 3158 3158 3158 3157 3156 3156 3157 3157 3157 3157 3157 3158 3158 3160 3161 3161 3163 3164 3165 3165 3165 3167 3166 3167 3169 3168 3168 3168 3169 3170 3171 3172 3173 3174 3175
3138 3137 3137 3136 3135 3135 3134 3134 3134 3134 3133 3134 3134 3134 3134 3134 3134 3133 3133 3133 3132 3132 3131 3131 3131 3130 3130 3128 3128 3129 3128 3129 3131 3131 3129 3127 3128 3130 3131 3132 3134 3136 3138 3140 3142 3144 3146 3149 3152 3154 3156 3157 3157 3157 3156 3156 3157 3155 3155 3156 3155 3156 3156 3157 3158 3158 3159 3159 3160 3162 3163 3164 3165 3165 3166 3165 3167 3169 3168 3168 3168 3169 3170 3171 3172 3173 3173 3175
3137 3136 3135 3134 3134 3133 3132 3132 3131 3131 3131 3131 3131 3131 3131 3131 3131 3131 3131 3131 3130 3130 3129 3129 3128 3127 3127 3126 3127 3127 3126 3127 3127 3127 3128 3127 3126 3128 3130 3131 3133 3134 3137 3139 3141 3143 3145 3147 3149 3151 3153 3155 3155 3156 3155 3155 3156 3155 3154 3155 3154 3154 3154 3156 3157 3157 3158 3158 3159 3161 3162 3163 3164 3165 3165 3164 3166 3168 3168 3168 3168 3169 3170 3171 3172 3172 3173 3174
3135 3134 3133 3132 3131 3131 3130 3130 3129 3129 3128 3128 3128 3128 3129 3129 3129 3129 3128 3128 3128 3128 3127 3126 3125 3125 3123 3123 3125 3125 3124 3125 3124 3124 3126 3126 3126 3127 3128 3130 3131 3133 3135 3137 3139 3142 3144 3146 3148 3149 3151 3152 3153 3155 3154 3154 3154 3153 3153 3154 3154 3153 3152 3154 3155 3155 3157 3157 3158 3160 3161 3162 3163 3164 3164 3164 3166 3167 3167 3168 3168 3169 3169 3170 3171 3172 3173 3174
3133 3132 3131 3130 3129 3128 3128 3127 3127 3127 3126 3126 3126 3126 3126 3126 3126 3126 3126 3126 3126 3125 3125 3124 3123 3122 3120 3120 3122 3123 3122 3122 3122 3123 3123 3125 3126 3125 3127 3128 3130 3132 3133 3135 3138 3140 3142 3145 3147 3147 3148 3150 3152 3153 3152 3152 3152 3152 3151 3150 3151 3151 3151 3153 3154 3154 3155 3155 3157 3159 3160 3161 3162 3163 3163 3163 3165 3167 3167 3168 3168 3169 3169 3170 3171 3172 3173 3174
3131 3130 3129 3128 3127 3126 3126 3125 3125 3124 3124 3124 3123 3123 3123 3123 3124 3123 3123 3123 3123 3123 3123 3122 3121 3120 3119 3118 3118 3120 3121 3120 3120 3121 3121 3122 3123 3124 3126 3128 3129 3130 3132 3134 3136 3138 3140 3143 3145 3146 3147 3149 3150 3151 3151 3150 3149 3149 3148 3147 3147 3148 3149 3151 3152 3153 3154 3155 3157 3158 3158 3159 3160 3161 3162 3163 3164 3166 3167 3167 3168 3169 3169 3170 3170 3171 3172 3173
3129 3128 3128 3126 3125 3124 3123 3123 3123 3122 3122 3121 3121 3121 3121 3120 3120 3120 3120 3120 3120 3120 3120 3119 3118 3118 3118 3116 3116 3117 3118 3118 3118 3119 3118 3119 3121 3123 3125 3128 3129 3130 3131 3133 3134 3137 3139 3141 3142 3144 3145 3146 3147 3149 3149 3147 3145 3145 3146 3146 3145 3145 3147 3149 3150 3151 3153 3154 3155 3156 3157 3158 3158 3159 3161 3162 3163 3165 3166 3166 3167 3168 3169 3170 3169 3170 3171 3172
3126 3126 3125 3124 3123 3121 3121 3121 3120 3120 3120 3120 3119 3119 3119 3118 3117 3117 3117 3117 3117 3117 3117 3118 3117 3116 3117 3115 3114 3115 3117 3118 3117 3118 3118 3117 3119 3122 3125 3127 3128 3129 3131 3132 3133 3135 3137 3139 3140 3141 3142 3142 3143 3145 3144 3143 3143 3143 3143 3144 3144 3144 3146 3148 3149 3149 3151 3153 3154 3155 3156 3157 3158 3158 3160 3161 3162 3163 3165 3166 3167 3168 3169 3169 3169 3170 3171 3171
3124 3123 3122 3122 3121 3119 3118 3118 3118 3117 3118 3118 3117 3117 3117 3115 3114 3114 3113 3112 3113 3113 3115 3115 3114 3113 3114 3114 3115 3115 3116 3117 3116 3116 3117 3117 3118 3120 3123 3126 3127 3128 3129 3130 3130 3132 3134 3136 3137 3136 3136 3137 3139 3140 3141 3142 3143 3141 3141 3142 3142 3142 3143 3146 3148 3149 3150 3151 3152 3153 3154 3156 3157 3158 3158 3160 3161 3162 3164 3165 3166 3167 3168 3168 3169 3170 3170 3170
3121 3120 3119 3119 3118 3117 3116 3115 3115 3114 3115 3115 3115 3115 3114 3112 3112 3112 3107 3107 3109 3110 3112 3112 3108 3108 3110 3113 3116 3116 3115 3114 3115 3116 3117 3117 3118 3119 3121 3124 3126 3126 3127 3128 3128 3129 3132 3132 3131 3130 3132 3134 3137 3138 3140 3142 3142 3140 3139 3139 3139 3139 3140 3144 3146 3147 3149 3150 3150 3152 3153 3155 3156 3157 3157 3158 3160 3161 3162 3163 3164 3165 3166 3167 3168 3169 3170 3170
3118 3117 3116 3116 3116 3115 3113 3113 3113 3112 3112 3112 3112 3113 3111 3110 3111 3109 3104 3104 3105 3105 3106 3107 3106 3104 3106 3109 3113 3115 3115 3113 3113 3115 3115 3116 3117 3119 3119 3121 3123 3123 3123 3126 3128 3128 3129 3127 3126 3128 3131 3134 3136 3138 3140 3140 3140 3139 3138 3137 3136 3136 3138 3142 3143 3145 3147 3148 3148 3150 3152 3153 3154 3155 3155 3156 3158 3159 3160 3161 3162 3164 3165 3166 3166 3167 3169 3169
3115 3114 3113 3113 3113 3112 3112 3111 3111 3110 3110 3109 3110 3110 3109 3108 3108 3107 3103 3100 3100 3102 3101 3102 3103 3100 3101 3105 3107 3111 3113 3113 3111 3111 3113 3115 3115 3116 3118 3119 3120 3121 3122 3125 3126 3126 3124 3122 3123 3127 3130 3132 3134 3136 3138 3138 3138 3138 3137 3135 3134 3134 3138 3140 3141 3142 3145 3146 3147 3148 3150 3151 3152 3153 3154 3155 3156 3157 3159 3160 3161 3162 3163 3164 3165 3166 3167 3168
3111 3111 3110 3110 3110 3109 3109 3109 3109 3108 3108 3107 3107 3107 3106 3106 3105 3104 3102 3097 3094 3097 3097 3096 3098 3097 3097 3100 3103 3106 3107 3108 3110 3110 3111 3112 3113 3114 3116 3117 3117 3119 3121 3121 3122 3121 3119 3118 3121 3125 3128 3130 3132 3133 3135 3136 3136 3135 3135 3134 3132 3133 3135 3136 3137 3140 3142 3144 3145 3147 3148 3149 3150 3151 3152 3153 3155 3156 3157 3158 3159 3160 3162 3163 3163 3164 3165 3166
3108 3107 3107 3106 3107 3106 3105 3106 3107 3106 3106 3105 3104 3104 3104 3104 3104 3102 3100 3096 3090 3091 3093 3093 3093 3093 3094 3097 3100 3102 3102 3104 3107 3108 3109 3109 3111 3112 3113 3115 3116 3117 3117 3118 3119 3117 3116 3117 3121 3124 3125 3127 3128 3130 3131 3132 3132 3132 3132 3132 3131 3132 3133 3133 3135 3138 3140 3143 3144 3146 3146 3146 3147 3148 3149 3151 3153 3154 3155 3156 3157 3158 3160 3161 3163 3163 3164 3165
3105 3104 3104 3103 3103 3103 3102 3103 3104 3104 3103 3103 3101 3102 3102 3102 3102 3100 3098 3095 3088 3086 3089 3089 3088 3088 3090 3094 3096 3098 3100 3101 3102 3105 3107 3106 3108 3110 3111 3113 3113 3113 3114 3116 3117 3115 3115 3117 3119 3120 3122 3123 3125 3126 3127 3129 3129 3129 3129 3129 3130 3130 3130 3131 3133 3135 3137 3139 3141 3143 3143 3142 3144 3145 3145 3147 3149 3151 3152 3153 3155 3156 3158 3159 3161 3162 3162 3163
3101 3100 3101 3101 3100 3101 3100 3099 3102 3102 3100 3100 3099 3100 3101 3101 3101 3099 3097 3094 3086 3082 3084 3084 3084 3084 3086 3088 3091 3096 3099 3097 3097 3101 3104 3104 3105 3108 3109 3110 3110 3111 3112 3114 3115 3113 3112 3115 3117 3117 3118 3120 3121 3122 3124 3126 3126 3125 3125 3128 3129 3128 3129 3129 3130 3131 3131 3134 3137 3140 3139 3139 3141 3142 3142 3144 3146 3148 3149 3151 3152 3154 3156 3157 3158 3160 3161 3162
3098 3097 3097 3098 3097 3097 3098 3097 3098 3099 3097 3097 3098 3099 3100 3100 3100 3099 3098 3095 3085 3079 3079 3079 3080 3081 3082 3085 3087 3093 3095 3093 3094 3096 3099 3101 3102 3104 3105 3107 3107 3107 3110 3113 3110 3107 3109 3112 3113 3114 3115 3117 3117 3117 3120 3123 3123 3121 3123 3126 3126 3127 3127 3127 3127 3127 3129 3133 3136 3137 3138 3138 3138 3139 3140 3142 3143 3145 3147 3148 3150 3151 3153 3154 3156 3157 3159 3160
3095 3093 3093 3096 3094 3092 3095 3095 3094 3096 3096 3095 3097 3098 3098 3099 3100 3099 3101 3097 3083 3076 3075 3075 3077 3078 3081 3085 3085 3087 3089 3091 3093 3091 3094 3098 3099 3101 3101 3102 3105 3105 3107 3108 3104 3104 3107 3108 3109 3111 3112 3112 3112 3113 3117 3120 3119 3120 3123 3124 3124 3125 3125 3125 3124 3123 3126 3131 3132 3134 3136 3134 3133 3135 3138 3138 3140 3142 3143 3144 3147 3148 3150 3151 3153 3155 3157 3158
3093 3090 3089 3092 3091 3089 3091 3091 3091 3092 3093 3093 3095 3096 3096 3098 3098 3099 3102 3095 3078 3074 3075 3074 3076 3077 3080 3083 3082 3083 3086 3089 3091 3089 3091 3094 3095 3097 3098 3099 3103 3104 3104 3104 3102 3103 3104 3105 3107 3108 3108 3108 3110 3112 3115 3117 3117 3119 3122 3122 3122 3122 3123 3123 3121 3121 3123 3124 3126 3131 3134 3131 3129 3131 3134 3134 3135 3136 3138 3141 3143 3145 3147 3148 3151 3153 3154 3155
3089 3088 3086 3087 3088 3087 3087 3088 3087 3088 3090 3091 3093 3094 3095 3096 3097 3099 3098 3087 3075 3074 3073 3071 3074 3075 3077 3080 3079 3080 3083 3086 3089 3089 3089 3091 3093 3094 3097 3099 3101 3102 3102 3101 3100 3101 3102 3103 3105 3104 3104 3106 3109 3111 3112 3114 3116 3119 3120 3121 3120 3119 3119 3119 3118 3120 3119 3116 3119 3125 3130 3131 3128 3127 3130 3130 3131 3133 3135 3138 3140 3141 3143 3145 3148 3150 3152 3153
3086 3085 3083 3083 3084 3084 3085 3085 3083 3085 3088 3088 3090 3093 3093 3093 3096 3094 3086 3077 3074 3074 3070 3070 3074 3073 3074 3076 3076 3077 3080 3083 3087 3088 3087 3089 3090 3091 3094 3096 3097 3098 3098 3097 3097 3099 3099 3099 3099 3100 3102 3105 3107 3108 3109 3112 3114 3116 3117 3118 3118 3116 3115 3114 3114 3115 3114 3112 3117 3121 3124 3127 3124 3123 3126 3127 3128 3130 3132 3134 3136 3138 3139 3141 3144 3146 3148 3150
3082 3081 3080 3079 3079 3081 3083 3081 3080 3084 3085 3086 3089 3089 3090 3093 3089 3081 3075 3074 3074 3070 3067 3069 3071 3071 3072 3073 3074 3075 3077 3079 3082 3084 3084 3085 3085 3085 3087 3088 3090 3092 3092 3092 3094 3095 3095 3094 3095 3097 3099 3101 3103 3104 3106 3108 3109 3111 3113 3114 3114 3113 3111 3109 3110 3110 3108 3110 3115 3118 3119 3119 3117 3119 3123 3124 3125 3127 3129 3130 3132 3134 3137 3139 3141 3143 3144 3146
3078 3077 3077 3076 3075 3077 3080 3078 3078 3081 3081 3084 3086 3085 3089 3088 3074 3067 3070 3072 3069 3066 3066 3068 3068 3069 3070 3070 3071 3072 3073 3076 3078 3080 3081 3083 3083 3082 3082 3084 3086 3087 3087 3090 3091 3090 3090 3091 3092 3093 3093 3096 3097 3099 3100 3101 3104 3106 3108 3109 3110 3109 3109 3109 3110 3108 3105 3106 3111 3115 3114 3111 3111 3116 3119 3120 3122 3124 3126 3128 3129 3131 3134 3136 3137 3140 3141 3142
3074 3073 3073 3074 3073 3073 3075 3076 3076 3077 3079 3081 3082 3083 3085 3075 3061 3062 3068 3067 3065 3065 3065 3067 3067 3068 3068 3067 3068 3069 3070 3072 3074 3077 3078 3079 3079 3078 3079 3080 3082 3084 3086 3087 3086 3085 3085 3084 3084 3086 3089 3091 3093 3094 3096 3099 3102 3103 3105 3107 3106 3105 3106 3107 3107 3105 3104 3105 3107 3109 3107 3104 3106 3110 3114 3116 3119 3121 3123 3125 3127 3129 3131 3132 3134 3137 3138 3139
3070 3069 3068 3070 3070 3069 3071 3073 3073 3074 3076 3077 3078 3079 3072 3060 3057 3063 3064 3063 3065 3064 3063 3066 3066 3065 3064 3065 3065 3066 3067 3067 3070 3073 3073 3073 3073 3073 3074 3074 3076 3080 3082 3082 3081 3081 3080 3077 3079 3084 3087 3088 3089 3091 3096 3099 3099 3100 3103 3103 3100 3101 3105 3104 3102 3101 3103 3102 3101 3101 3100 3100 3103 3107 3111 3114 3115 3118 3120 3122 3124 3126 3127 3129 3130 3132 3133 3134
3066 3065 3065 3066 3066 3066 3066 3068 3070 3071 3071 3073 3074 3068 3057 3053 3058 3062 3061 3063 3065 3063 3063 3063 3063 3062 3060 3060 3062 3062 3063 3064 3065 3067 3067 3068 3068 3068 3069 3070 3072 3074 3076 3077 3077 3077 3077 3075 3078 3082 3082 3084 3087 3090 3094 3095 3094 3095 3097 3095 3096 3101 3104 3102 3100 3101 3102 3099 3096 3096 3095 3097 3101 3102 3106 3110 3112 3114 3117 3119 3122 3123 3124 3125 3126 3127 3129 3131
3061 3060 3061 3063 3062 3062 3062 3064 3067 3067 3067 3069 3064 3054 3050 3053 3057 3059 3060 3062 3063 3063 3063 3059 3057 3058 3056 3055 3056 3058 3060 3060 3061 3061 3061 3063 3062 3063 3065 3066 3067 3069 3071 3074 3075 3074 3074 3072 3074 3077 3077 3080 3085 3089 3091 3092 3092 3091 3090 3092 3097 3101 3101 3100 3098 3098 3100 3097 3094 3093 3093 3096 3097 3097 3101 3106 3109 3110 3112 3116 3119 3120 3121 3123 3123 3124 3127 3128
3055 3054 3057 3059 3057 3057 3058 3059 3062 3062 3062 3062 3054 3047 3048 3051 3053 3056 3058 3059 3059 3061 3059 3056 3054 3053 3052 3052 3051 3053 3055 3055 3055 3056 3056 3057 3056 3057 3061 3062 3064 3065 3068 3072 3072 3072 3073 3070 3069 3071 3073 3076 3082 3086 3086 3087 3088 3087 3086 3090 3093 3092 3093 3094 3093 3094 3096 3094 3092 3092 3093 3093 3093 3093 3097 3101 3104 3107 3109 3112 3115 3117 3118 3119 3119 3120 3124 3126
3050 3050 3053 3055 3054 3054 3055 3055 3056 3058 3057 3053 3047 3043 3045 3046 3048 3052 3054 3054 3056 3056 3054 3052 3051 3050 3049 3048 3048 3049 3050 3049 3050 3052 3051 3051 3051 3052 3056 3058 3060 3061 3065 3068 3069 3069 3071 3070 3066 3067 3070 3073 3077 3079 3077 3077 3082 3084 3085 3086 3086 3086 3088 3090 3089 3090 3093 3091 3090 3092 3090 3087 3088 3090 3093 3096 3099 3103 3106 3109 3112 3114 3115 3116 3116 3115 3118 3121
3047 3047 3049 3053 3054 3053 3051 3051 3052 3052 3049 3045 3042 3042 3043 3044 3046 3047 3049 3050 3050 3050 3050 3050 3049 3047 3045 3045 3045 3045 3045 3045 3046 3047 3047 3047 3048 3049 3051 3054 3056 3058 3061 3064 3066 3067 3068 3068 3066 3064 3066 3068 3067 3066 3068 3072 3077 3080 3080 3080 3080 3083 3086 3088 3086 3087 3089 3088 3088 3090 3086 3084 3087 3089 3090 3092 3095 3099 3103 3106 3110 3111 3112 3114 3115 3113 3113 3116
3043 3043 3046 3052 3054 3051 3049 3049 3048 3046 3044 3041 3039 3040 3041 3043 3044 3044 3047 3048 3045 3044 3045 3046 3046 3045 3043 3043 3042 3041 3040 3040 3040 3042 3043 3044 3044 3045 3046 3049 3052 3055 3057 3059 3061 3063 3064 3065 3065 3063 3061 3061 3060 3062 3067 3072 3075 3076 3077 3077 3078 3079 3082 3083 3081 3081 3085 3085 3085 3086 3083 3082 3085 3087 3088 3090 3092 3095 3100 3103 3106 3108 3110 3111 3113 3111 3110 3113
3039 3039 3043 3048 3048 3047 3047 3045 3043 3043 3040 3037 3037 3038 3039 3039 3040 3040 3042 3044 3043 3041 3041 3041 3040 3040 3040 3039 3039 3039 3038 3036 3034 3035 3037 3039 3041 3041 3043 3045 3048 3051 3053 3054 3056 3060 3062 3063 3062 3061 3058 3057 3059 3062 3065 3069 3072 3074 3074 3075 3077 3076 3076 3076 3076 3078 3081 3082 3083 3084 3081 3080 3084 3086 3087 3089 3090 3093 3098 3100 3102 3105 3107 3108 3110 3109 3108 3110
3035 3033 3037 3042 3041 3040 3041 3039 3038 3038 3036 3035 3035 3035 3036 3036 3036 3036 3038 3039 3039 3039 3038 3036 3036 3036 3036 3036 3036 3036 3035 3033 3031 3029 3030 3034 3037 3039 3041 3042 3044 3046 3048 3049 3052 3056 3059 3058 3057 3058 3058 3057 3057 3060 3063 3065 3068 3069 3068 3070 3072 3072 3072 3072 3073 3077 3078 3076 3078 3079 3077 3078 3082 3084 3086 3088 3089 3091 3095 3097 3099 3102 3103 3105 3107 3107 3106 3109
3029 3028 3031 3037 3037 3036 3034 3033 3033 3033 3032 3033 3032 3031 3032 3032 3032 3032 3034 3034 3035 3035 3034 3032 3033 3034 3034 3034 3034 3033 3032 3031 3029 3026 3027 3029 3031 3035 3038 3039 3040 3042 3044 3045 3048 3051 3052 3053 3054 3054 3055 3055 3053 3053 3056 3059 3061 3062 3063 3065 3067 3069 3071 3071 3072 3074 3073 3071 3072 3073 3073 3077 3081 3083 3085 3087 3088 3090 3093 3096 3098 3099 3100 3102 3104 3105 3106 3108
3026 3024 3026 3030 3032 3031 3029 3028 3030 3030 3029 3030 3028 3027 3028 3027 3026 3028 3029 3029 3030 3031 3030 3029 3030 3031 3032 3032 3031 3030 3030 3030 3028 3027 3027 3026 3027 3030 3033 3035 3036 3039 3041 3043 3045 3046 3047 3049 3050 3048 3048 3049 3048 3046 3048 3053 3056 3059 3061 3063 3064 3066 3068 3069 3070 3069 3067 3067 3071 3070 3070 3074 3079 3081 3084 3086 3088 3089 3091 3093 3095 3096 3099 3101 3101 3102 3104 3106
3024 3023 3023 3025 3027 3028 3026 3026 3027 3026 3026 3027 3025 3024 3024 3022 3021 3023 3024 3025 3025 3026 3027 3026 3028 3028 3029 3029 3028 3026 3027 3028 3027 3026 3025 3024 3024 3026 3028 3030 3032 3035 3038 3039 3041 3043 3044 3045 3046 3045 3044 3045 3045 3045 3047 3051 3053 3055 3057 3059 3061 3062 3064 3066 3066 3064 3064 3067 3068 3068 3070 3072 3074 3077 3080 3083 3085 3087 3089 3090 3092 3094 3096 3099 3100 3100 3102 3104
3024 3021 3021 3022 3022 3023 3023 3023 3024 3023 3023 3023 3021 3019 3018 3017 3016 3016 3016 3017 3020 3022 3023 3022 3023 3024 3024 3025 3025 3024 3025 3026 3026 3024 3023 3023 3023 3024 3025 3027 3029 3032 3034 3036 3037 3039 3040 3040 3041 3043 3044 3044 3046 3046 3047 3049 3050 3051 3052 3055 3057 3058 3060 3061 3060 3060 3064 3066 3064 3067 3070 3071 3071 3074 3077 3080 3082 3084 3085 3087 3090 3092 3093 3096 3099 3099 3100 3100
3021 3019 3019 3020 3019 3019 3018 3018 3019 3019 3018 3017 3015 3013 3013 3013 3013 3012 3011 3011 3014 3019 3020 3018 3019 3021 3022 3023 3023 3022 3023 3023 3022 3022 3022 3022 3022 3023 3023 3023 3025 3029 3032 3034 3035 3037 3037 3036 3038 3041 3042 3044 3045 3045 3044 3046 3047 3048 3049 3051 3054 3056 3056 3056 3056 3059 3063 3062 3061 3066 3069 3069 3070 3071 3074 3078 3081 3082 3083 3084 3088 3091 3092 3095 3096 3097 3098 3098
3019 3017 3016 3017 3016 3015 3014 3014 3014 3014 3014 3013 3012 3011 3010 3010 3010 3011 3010 3008 3006 3008 3009 3009 3011 3016 3018 3020 3021 3020 3020 3021 3019 3019 3020 3020 3020 3020 3019 3020 3022 3025 3030 3032 3034 3036 3035 3033 3035 3038 3039 3041 3043 3043 3043 3043 3043 3044 3046 3047 3049 3052 3053 3054 3054 3057 3059 3059 3061 3064 3066 3067 3070 3071 3073 3076 3078 3081 3083 3084 3086 3088 3091 3093 3095 3096 3097 3097
3017 3015 3014 3013 3012 3011 3011 3011 3012 3011 3011 3012 3011 3009 3009 3008 3007 3008 3009 3008 3004 3001 3001 3002 3003 3005 3006 3010 3014 3015 3018 3020 3019 3017 3019 3020 3018 3017 3016 3017 3018 3021 3027 3031 3032 3034 3033 3033 3035 3037 3036 3037 3038 3040 3042 3042 3040 3040 3042 3044 3045 3046 3048 3050 3052 3054 3055 3056 3058 3062 3063 3065 3069 3072 3073 3074 3075 3078 3081 3083 3085 3086 3087 3090 3092 3094 3095 3094
3014 3013 3012 3010 3008 3008 3008 3008 3009 3009 3008 3009 3009 3008 3008 3006 3005 3006 3006 3006 3004 3002 3002 3003 3002 3002 3001 3002 3004 3004 3004 3006 3005 3005 3008 3012 3013 3015 3015 3015 3015 3018 3023 3028 3030 3031 3031 3032 3034 3036 3035 3033 3034 3036 3038 3040 3042 3040 3039 3040 3040 3040 3042 3045 3049 3052 3053 3054 3056 3058 3059 3061 3066 3070 3072 3073 3074 3075 3076 3079 3082 3084 3085 3087 3088 3090 3092 3092
3012 3011 3011 3009 3006 3005 3006 3006 3006 3006 3006 3006 3007 3007 3007 3005 3005 3006 3004 3002 3002 3003 3003 3002 3001 3001 2999 2998 2998 2995 2994 2996 2996 2998 3001 3002 3004 3008 3011 3013 3014 3015 3019 3024 3026 3028 3030 3030 3032 3034 3033 3031 3032 3033 3035 3039 3039 3034 3033 3036 3038 3039 3041 3043 3045 3047 3050 3052 3054 3055 3056 3059 3064 3066 3068 3069 3071 3072 3073 3075 3077 3080 3082 3084 3085 3086 3088 3089